| time (UTC) | temp F | wind direction | speed knots | gust knots | rain 1hr in | rain 24hr in | rain mn in | humidity % | barometer mb |
| 20260905185219 | 68 | 263 | 3.5 | 5.2 | 0.00 | 0.00 | 0.00 | 68 | 1017.8 |
| 20260905184713 | 67 | 233 | 1.7 | 1.7 | 0.00 | 0.00 | 0.00 | 70 | 1017.9 |
| 20260905184212 | 67 | 252 | 0.9 | 1.7 | 0.00 | 0.00 | 0.00 | 71 | 1017.7 |
| 20260905183711 | 67 | 246 | 1.7 | 1.7 | 0.00 | 0.00 | 0.00 | 71 | 1017.8 |
| 20260905183207 | 66 | 227 | 2.6 | 2.6 | 0.00 | 0.00 | 0.00 | 72 | 1018.2 |
| 20260905182701 | 66 | 294 | 0.9 | 0.9 | 0.00 | 0.00 | 0.00 | 72 | 1018.0 |
| 20260905182201 | 65 | 270 | 0.9 | 1.7 | 0.00 | 0.00 | 0.00 | 74 | 1018.0 |
| 20260905181656 | 65 | 204 | 2.6 | 2.6 | 0.00 | 0.00 | 0.00 | 74 | 1018.1 |
| 20260905181155 | 64 | 227 | 3.5 | 5.2 | 0.00 | 0.00 | 0.00 | 76 | 1018.0 |
| 20260905180649 | 65 | 329 | 4.3 | 5.2 | 0.00 | 0.00 | 0.00 | 74 | 1018.1 |
| 20260905180145 | 63 | 312 | 0.0 | 0.9 | 0.00 | 0.00 | 0.00 | 78 | 1018.1 |
| 20260905175644 | 63 | 273 | 0.9 | 0.9 | 0.00 | 0.00 | 0.00 | 78 | 1018.3 |
| 20260905175139 | 62 | 324 | 1.7 | 1.7 | 0.00 | 0.00 | 0.00 | 79 | 1018.3 |
| 20260905174635 | 63 | 309 | 0.9 | 0.9 | 0.00 | 0.00 | 0.00 | 79 | 1018.3 |
| 20260905174131 | 62 | 286 | 0.9 | 0.9 | 0.00 | 0.00 | 0.00 | 79 | 1018.4 |
| 20260905173626 | 63 | 281 | 1.7 | 1.7 | 0.00 | 0.00 | 0.00 | 78 | 1018.2 |
| 20260905173122 | 64 | 290 | 0.9 | 0.9 | 0.00 | 0.00 | 0.00 | 77 | 1018.1 |
| 20260905172621 | 65 | 307 | 2.6 | 4.3 | 0.00 | 0.00 | 0.00 | 76 | 1018.4 |
| 20260905172116 | 65 | 277 | 2.6 | 4.3 | 0.00 | 0.00 | 0.00 | 75 | 1018.1 |
| 20260905171612 | 63 | 168 | 0.9 | 0.9 | 0.00 | 0.00 | 0.00 | 78 | 1018.1 |
| 20260905171108 | 63 | 209 | 1.7 | 1.7 | 0.00 | 0.00 | 0.00 | 78 | 1018.2 |
| 20260905170604 | 62 | 272 | 0.9 | 0.9 | 0.00 | 0.00 | 0.00 | 80 | 1017.9 |
| 20260905170059 | 62 | 242 | 1.7 | 2.6 | 0.00 | 0.00 | 0.00 | 80 | 1018.0 |
| 20260905165554 | 62 | 280 | 0.9 | 1.7 | 0.00 | 0.00 | 0.00 | 81 | 1017.7 |
| 20260905165049 | 62 | 208 | 1.7 | 1.7 | 0.00 | 0.00 | 0.00 | 82 | 1017.7 |
| 20260905164544 | 61 | 239 | 1.7 | 1.7 | 0.00 | 0.00 | 0.00 | 84 | 1017.9 |
| 20260905164038 | 60 | 196 | 3.5 | 4.3 | 0.00 | 0.00 | 0.00 | 85 | 1017.9 |
| 20260905163534 | 59 | 271 | 0.0 | 0.0 | 0.00 | 0.00 | 0.00 | 86 | 1017.9 |
| 20260905163030 | 59 | 282 | 0.0 | 0.0 | 0.00 | 0.00 | 0.00 | 87 | 1017.9 |
| 20260905162527 | 58 | 279 | 0.0 | 0.0 | 0.00 | 0.00 | 0.00 | 87 | 1018.0 |
| 20260905162021 | 59 | 257 | 0.0 | 0.0 | 0.00 | 0.00 | 0.00 | 87 | 1018.0 |
| 20260905161521 | 58 | 285 | 0.0 | 0.0 | 0.00 | 0.00 | 0.00 | 89 | 1018.0 |
| 20260905161018 | 57 | 229 | 1.7 | 1.7 | 0.00 | 0.00 | 0.00 | 89 | 1018.0 |
| 20260905160511 | 57 | 273 | 1.7 | 2.6 | 0.00 | 0.00 | 0.00 | 89 | 1017.9 |
| 20260905160011 | 58 | 251 | 2.6 | 2.6 | 0.00 | 0.00 | 0.00 | 89 | 1018.0 |
| 20260905155506 | 58 | 257 | 0.0 | 0.9 | 0.00 | 0.00 | 0.00 | 91 | 1017.9 |
| 20260905155004 | 58 | 206 | 0.9 | 1.7 | 0.00 | 0.00 | 0.00 | 92 | 1017.8 |
| 20260905154500 | 57 | 231 | 0.0 | 0.0 | 0.00 | 0.00 | 0.00 | 93 | 1017.9 |
| 20260905153955 | 56 | 236 | 1.7 | 1.7 | 0.00 | 0.00 | 0.00 | 93 | 1018.0 |
| 20260905153452 | 57 | 262 | 0.0 | 0.0 | 0.00 | 0.00 | 0.00 | 94 | 1017.9 |
| 20260905152951 | 56 | 271 | 0.0 | 0.0 | 0.00 | 0.00 | 0.00 | 95 | 1017.9 |
| 20260905152451 | 56 | 284 | 0.0 | 0.0 | 0.00 | 0.00 | 0.00 | 95 | 1018.0 |
| 20260905151946 | 56 | 288 | 0.0 | 0.0 | 0.00 | 0.00 | 0.00 | 95 | 1017.7 |
| 20260905151441 | 55 | 294 | 0.0 | 0.0 | 0.00 | 0.00 | 0.00 | 96 | 1017.7 |
| 20260905150936 | 55 | 293 | 0.0 | 0.0 | 0.00 | 0.00 | 0.00 | 96 | 1017.8 |
| 20260905150431 | 55 | 289 | 0.0 | 0.0 | 0.00 | 0.00 | 0.00 | 96 | 1017.6 |
| 20260905145927 | 55 | 291 | 0.0 | 0.0 | 0.00 | 0.00 | 0.00 | 96 | 1017.6 |
| 20260905145421 | 55 | 291 | 0.0 | 0.0 | 0.00 | 0.00 | 0.00 | 96 | 1017.3 |
| 20260905144921 | 55 | 290 | 0.0 | 0.0 | 0.00 | 0.00 | 0.00 | 96 | 1017.8 |
| 20260905144417 | 54 | 283 | 0.0 | 0.0 | 0.00 | 0.00 | 0.00 | 96 | 1017.6 |
| 20260905143915 | 54 | 293 | 0.0 | 0.0 | 0.00 | 0.00 | 0.00 | 96 | 1017.6 |
| 20260905143410 | 54 | 289 | 0.0 | 0.0 | 0.00 | 0.00 | 0.00 | 96 | 1017.4 |
| 20260905142909 | 54 | 294 | 0.0 | 0.0 | 0.00 | 0.00 | 0.00 | 96 | 1017.5 |
| 20260905142408 | 54 | 293 | 0.0 | 0.0 | 0.00 | 0.00 | 0.00 | 96 | 1017.3 |
| 20260905141904 | 54 | 291 | 0.0 | 0.0 | 0.00 | 0.00 | 0.00 | 96 | 1017.2 |
| 20260905141359 | 54 | 296 | 0.0 | 0.0 | 0.00 | 0.00 | 0.00 | 96 | 1017.3 |
| 20260905140855 | 53 | 294 | 0.0 | 0.0 | 0.00 | 0.00 | 0.00 | 96 | 1017.2 |
| 20260905140350 | 53 | 313 | 0.0 | 0.0 | 0.00 | 0.00 | 0.00 | 96 | 1017.5 |
| 20260905135848 | 53 | 302 | 0.0 | 0.0 | 0.00 | 0.00 | 0.00 | 96 | 1017.2 |
| 20260905135344 | 53 | 299 | 0.0 | 0.0 | 0.00 | 0.00 | 0.00 | 96 | 1017.2 |
| 20260905134839 | 53 | 305 | 0.0 | 0.0 | 0.00 | 0.00 | 0.00 | 96 | 1017.3 |
| 20260905134338 | 53 | 318 | 0.0 | 0.0 | 0.00 | 0.00 | 0.00 | 96 | 1017.2 |
| 20260905133833 | 53 | 321 | 0.0 | 0.0 | 0.00 | 0.00 | 0.00 | 96 | 1017.2 |
| 20260905133328 | 53 | 314 | 0.0 | 0.0 | 0.00 | 0.00 | 0.00 | 96 | 1017.1 |
| 20260905132827 | 54 | 303 | 0.0 | 0.0 | 0.00 | 0.00 | 0.00 | 96 | 1017.1 |
| 20260905132323 | 54 | 302 | 0.0 | 0.0 | 0.00 | 0.00 | 0.00 | 95 | 1017.4 |
| 20260905131817 | 54 | 307 | 0.0 | 0.0 | 0.00 | 0.00 | 0.00 | 95 | 1017.1 |
| 20260905131313 | 54 | 307 | 0.0 | 0.0 | 0.00 | 0.00 | 0.00 | 95 | 1017.1 |
| 20260905130808 | 54 | 306 | 0.0 | 0.0 | 0.00 | 0.00 | 0.00 | 95 | 1017.1 |
| 20260905130306 | 54 | 309 | 0.0 | 0.0 | 0.00 | 0.00 | 0.00 | 95 | 1017.4 |
| 20260905125802 | 53 | 308 | 0.0 | 0.0 | 0.00 | 0.00 | 0.00 | 95 | 1017.2 |
| 20260905125256 | 54 | 313 | 0.0 | 0.0 | 0.00 | 0.00 | 0.00 | 95 | 1017.1 |
| 20260905124753 | 54 | 314 | 0.0 | 0.0 | 0.00 | 0.00 | 0.00 | 95 | 1017.1 |
| 20260905124249 | 54 | 318 | 0.0 | 0.0 | 0.00 | 0.00 | 0.00 | 95 | 1017.2 |
| 20260905123744 | 54 | 327 | 0.0 | 0.0 | 0.00 | 0.00 | 0.00 | 95 | 1017.1 |
| 20260905123241 | 54 | 322 | 0.0 | 0.0 | 0.00 | 0.00 | 0.00 | 95 | 1017.0 |
| 20260905122740 | 54 | 324 | 0.0 | 0.0 | 0.00 | 0.00 | 0.00 | 95 | 1017.0 |
| 20260905122234 | 53 | 314 | 0.0 | 0.0 | 0.00 | 0.00 | 0.00 | 95 | 1017.0 |
| 20260905121729 | 54 | 317 | 0.0 | 0.0 | 0.00 | 0.00 | 0.00 | 95 | 1017.1 |
| 20260905121226 | 54 | 322 | 0.0 | 0.0 | 0.00 | 0.00 | 0.00 | 95 | 1017.0 |
| 20260905120719 | 54 | 325 | 0.0 | 0.0 | 0.00 | 0.00 | 0.00 | 95 | 1016.9 |
| 20260905120213 | 54 | 323 | 0.0 | 0.0 | 0.00 | 0.00 | 0.00 | 95 | 1016.8 |
| 20260905115708 | 54 | 333 | 0.0 | 0.0 | 0.00 | 0.00 | 0.00 | 95 | 1016.9 |
| 20260905115203 | 54 | 340 | 0.0 | 0.0 | 0.00 | 0.00 | 0.00 | 95 | 1016.7 |
| 20260905114703 | 53 | 341 | 0.0 | 0.0 | 0.00 | 0.00 | 0.00 | 95 | 1016.7 |
| 20260905114200 | 53 | 339 | 0.0 | 0.0 | 0.00 | 0.00 | 0.00 | 95 | 1016.9 |
| 20260905113655 | 53 | 319 | 0.0 | 0.0 | 0.00 | 0.00 | 0.00 | 94 | 1017.1 |
| 20260905113151 | 53 | 312 | 0.0 | 0.0 | 0.00 | 0.00 | 0.00 | 94 | 1016.9 |
| 20260905112651 | 53 | 308 | 0.0 | 0.0 | 0.00 | 0.00 | 0.00 | 94 | 1016.9 |
| 20260905112147 | 54 | 304 | 0.0 | 0.0 | 0.00 | 0.00 | 0.00 | 94 | 1017.2 |
| 20260905111646 | 54 | 307 | 0.0 | 0.0 | 0.00 | 0.00 | 0.00 | 94 | 1016.9 |
| 20260905111146 | 54 | 309 | 0.0 | 0.0 | 0.00 | 0.00 | 0.00 | 94 | 1016.7 |
| 20260905110645 | 54 | 314 | 0.0 | 0.0 | 0.00 | 0.00 | 0.00 | 94 | 1016.8 |
| 20260905110140 | 54 | 308 | 0.0 | 0.0 | 0.00 | 0.00 | 0.00 | 94 | 1016.8 |
| 20260905105635 | 54 | 306 | 0.0 | 0.0 | 0.00 | 0.00 | 0.00 | 94 | 1016.8 |
| 20260905105134 | 54 | 316 | 0.0 | 0.0 | 0.00 | 0.00 | 0.00 | 93 | 1016.9 |
| 20260905104629 | 54 | 317 | 0.0 | 0.0 | 0.00 | 0.00 | 0.00 | 93 | 1016.8 |
| 20260905104125 | 54 | 317 | 0.0 | 0.0 | 0.00 | 0.00 | 0.00 | 93 | 1016.9 |
| 20260905103620 | 55 | 335 | 0.0 | 0.0 | 0.00 | 0.00 | 0.00 | 93 | 1016.9 |
| 20260905103116 | 55 | 334 | 0.0 | 0.0 | 0.00 | 0.00 | 0.00 | 93 | 1016.9 |
| 20260905102611 | 55 | 318 | 0.0 | 0.0 | 0.00 | 0.00 | 0.00 | 93 | 1016.7 |
| 20260905102108 | 55 | 321 | 0.0 | 0.0 | 0.00 | 0.00 | 0.00 | 93 | 1017.0 |
| 20260905101606 | 55 | 317 | 0.0 | 0.0 | 0.00 | 0.00 | 0.00 | 93 | 1016.7 |
| 20260905101104 | 55 | 321 | 0.0 | 0.0 | 0.00 | 0.00 | 0.00 | 93 | 1016.7 |
| 20260905100601 | 55 | 337 | 0.0 | 0.0 | 0.00 | 0.00 | 0.00 | 93 | 1016.6 |
| 20260905100055 | 55 | 325 | 0.0 | 0.0 | 0.00 | 0.00 | 0.00 | 93 | 1016.6 |
| 20260905095549 | 55 | 328 | 0.0 | 0.0 | 0.00 | 0.00 | 0.00 | 93 | 1016.4 |
| 20260905095045 | 55 | 345 | 0.0 | 0.0 | 0.00 | 0.00 | 0.00 | 93 | 1016.6 |
| 20260905094539 | 55 | 324 | 0.0 | 0.0 | 0.00 | 0.00 | 0.00 | 92 | 1016.3 |
| 20260905094039 | 55 | 318 | 0.0 | 0.0 | 0.00 | 0.00 | 0.00 | 92 | 1016.7 |
| 20260905093533 | 55 | 313 | 0.0 | 0.0 | 0.00 | 0.00 | 0.00 | 92 | 1016.5 |
| 20260905093030 | 55 | 315 | 0.0 | 0.0 | 0.00 | 0.00 | 0.00 | 92 | 1016.5 |
| 20260905092529 | 55 | 318 | 0.0 | 0.0 | 0.00 | 0.00 | 0.00 | 91 | 1016.6 |
| 20260905092025 | 55 | 323 | 0.0 | 0.0 | 0.00 | 0.00 | 0.00 | 91 | 1016.5 |
| 20260905091524 | 56 | 346 | 0.0 | 0.0 | 0.00 | 0.00 | 0.00 | 91 | 1016.5 |
| 20260905091019 | 56 | 328 | 0.0 | 0.0 | 0.00 | 0.00 | 0.00 | 91 | 1016.3 |
| 20260905090519 | 56 | 0 | 0.0 | 0.0 | 0.00 | 0.00 | 0.00 | 90 | 1016.2 |
| 20260905090014 | 56 | 12 | 0.0 | 0.0 | 0.00 | 0.00 | 0.00 | 90 | 1016.2 |
| 20260905085512 | 56 | 346 | 0.0 | 0.0 | 0.00 | 0.00 | 0.00 | 90 | 1016.2 |
| 20260905085008 | 56 | 353 | 0.0 | 0.0 | 0.00 | 0.00 | 0.00 | 90 | 1016.6 |
| 20260905084503 | 56 | 358 | 0.0 | 0.0 | 0.00 | 0.00 | 0.00 | 89 | 1016.2 |
| 20260905083958 | 57 | 346 | 0.0 | 0.0 | 0.00 | 0.00 | 0.00 | 89 | 1016.2 |
| 20260905083453 | 56 | 356 | 0.0 | 0.9 | 0.00 | 0.00 | 0.00 | 89 | 1016.4 |
| 20260905082949 | 57 | 46 | 0.0 | 0.0 | 0.00 | 0.00 | 0.00 | 88 | 1016.3 |
| 20260905082444 | 57 | 79 | 0.9 | 0.9 | 0.00 | 0.00 | 0.00 | 88 | 1016.3 |
| 20260905081939 | 57 | 68 | 0.9 | 1.7 | 0.00 | 0.00 | 0.00 | 88 | 1016.4 |
| 20260905081434 | 57 | 63 | 0.0 | 0.0 | 0.00 | 0.00 | 0.00 | 87 | 1016.3 |
| 20260905080933 | 57 | 341 | 0.0 | 0.0 | 0.00 | 0.00 | 0.00 | 87 | 1016.4 |
| 20260905080428 | 57 | 28 | 0.9 | 0.9 | 0.00 | 0.00 | 0.00 | 86 | 1016.3 |
| 20260905075927 | 57 | 26 | 0.9 | 0.9 | 0.00 | 0.00 | 0.00 | 86 | 1016.3 |
| 20260905075422 | 57 | 10 | 0.0 | 0.0 | 0.00 | 0.00 | 0.00 | 86 | 1016.2 |
| 20260905074921 | 57 | 351 | 0.9 | 0.9 | 0.00 | 0.00 | 0.00 | 86 | 1016.2 |
| 20260905074416 | 57 | 25 | 1.7 | 2.6 | 0.00 | 0.00 | 0.00 | 86 | 1016.0 |
| 20260905073912 | 57 | 25 | 0.9 | 1.7 | 0.00 | 0.00 | 0.00 | 86 | 1016.0 |
| 20260905073407 | 57 | 26 | 1.7 | 1.7 | 0.00 | 0.00 | 0.00 | 86 | 1016.2 |
| 20260905072903 | 57 | 20 | 1.7 | 1.7 | 0.00 | 0.00 | 0.00 | 85 | 1016.2 |
| 20260905072356 | 57 | 358 | 2.6 | 2.6 | 0.00 | 0.00 | 0.00 | 86 | 1016.1 |
| 20260905071852 | 58 | 323 | 0.0 | 0.0 | 0.00 | 0.00 | 0.00 | 86 | 1016.0 |
| 20260905071343 | 58 | 350 | 1.7 | 1.7 | 0.00 | 0.00 | 0.00 | 86 | 1016.1 |
| 20260905070837 | 58 | 336 | 0.0 | 0.9 | 0.00 | 0.00 | 0.00 | 86 | 1016.3 |
| 20260905070334 | 58 | 315 | 0.9 | 0.9 | 0.00 | 0.00 | 0.00 | 85 | 1015.9 |
| 20260905065833 | 58 | 344 | 2.6 | 2.6 | 0.00 | 0.00 | 0.00 | 85 | 1016.0 |
| 20260905065331 | 58 | 326 | 0.0 | 0.0 | 0.00 | 0.00 | 0.00 | 84 | 1015.9 |
| 20260905064827 | 58 | 336 | 0.0 | 0.0 | 0.00 | 0.00 | 0.00 | 84 | 1016.0 |
| 20260905064323 | 58 | 302 | 0.9 | 0.9 | 0.00 | 0.00 | 0.00 | 84 | 1015.8 |
| 20260905063820 | 58 | 318 | 0.0 | 0.0 | 0.00 | 0.00 | 0.00 | 83 | 1015.7 |
| 20260905063316 | 58 | 315 | 0.0 | 0.0 | 0.00 | 0.00 | 0.00 | 83 | 1015.9 |
| 20260905062813 | 58 | 327 | 0.9 | 0.9 | 0.00 | 0.00 | 0.00 | 83 | 1015.8 |
| 20260905062307 | 58 | 317 | 0.0 | 0.0 | 0.00 | 0.00 | 0.00 | 84 | 1015.8 |
| 20260905061802 | 58 | 323 | 0.9 | 0.9 | 0.00 | 0.00 | 0.00 | 83 | 1015.7 |
| 20260905061256 | 58 | 322 | 0.9 | 0.9 | 0.00 | 0.00 | 0.00 | 83 | 1016.1 |
| 20260905060750 | 58 | 295 | 0.0 | 0.0 | 0.00 | 0.00 | 0.00 | 83 | 1015.9 |
| 20260905060248 | 59 | 324 | 0.0 | 0.0 | 0.00 | 0.00 | 0.00 | 83 | 1015.9 |
| 20260905055746 | 59 | 357 | 0.9 | 0.9 | 0.00 | 0.00 | 0.00 | 82 | 1015.8 |
| 20260905055241 | 59 | 350 | 3.5 | 4.3 | 0.00 | 0.00 | 0.00 | 82 | 1016.0 |
| 20260905054736 | 59 | 327 | 0.0 | 0.0 | 0.00 | 0.00 | 0.00 | 81 | 1016.0 |
| 20260905054232 | 59 | 331 | 0.0 | 0.9 | 0.00 | 0.00 | 0.00 | 80 | 1015.6 |
| 20260905053731 | 59 | 326 | 0.9 | 1.7 | 0.00 | 0.00 | 0.00 | 80 | 1015.9 |
| 20260905053226 | 59 | 339 | 0.9 | 0.9 | 0.00 | 0.00 | 0.00 | 80 | 1015.6 |
| 20260905052721 | 59 | 348 | 1.7 | 1.7 | 0.00 | 0.00 | 0.00 | 80 | 1015.5 |
| 20260905052216 | 59 | 350 | 0.9 | 0.9 | 0.00 | 0.00 | 0.00 | 80 | 1015.6 |
| 20260905051715 | 59 | 8 | 0.0 | 0.0 | 0.00 | 0.00 | 0.00 | 80 | 1015.5 |
| 20260905051212 | 59 | 359 | 0.0 | 0.0 | 0.00 | 0.00 | 0.00 | 80 | 1015.7 |
| 20260905050708 | 59 | 27 | 0.0 | 0.0 | 0.00 | 0.00 | 0.00 | 79 | 1015.8 |
| 20260905050205 | 60 | 353 | 0.0 | 0.0 | 0.00 | 0.00 | 0.00 | 79 | 1015.6 |
| 20260905045704 | 60 | 10 | 0.0 | 0.0 | 0.00 | 0.00 | 0.00 | 79 | 1015.6 |
| 20260905045200 | 60 | 24 | 2.6 | 4.3 | 0.00 | 0.00 | 0.00 | 79 | 1015.7 |
| 20260905044655 | 60 | 70 | 1.7 | 1.7 | 0.00 | 0.00 | 0.00 | 79 | 1015.6 |
| 20260905044150 | 60 | 35 | 2.6 | 2.6 | 0.00 | 0.00 | 0.00 | 78 | 1015.6 |
| 20260905043649 | 60 | 46 | 2.6 | 2.6 | 0.00 | 0.00 | 0.00 | 77 | 1015.7 |
| 20260905043144 | 60 | 17 | 1.7 | 1.7 | 0.00 | 0.00 | 0.00 | 77 | 1015.7 |
| 20260905042643 | 60 | 51 | 3.5 | 5.2 | 0.00 | 0.00 | 0.00 | 76 | 1015.7 |
| 20260905042137 | 60 | 23 | 4.3 | 5.2 | 0.00 | 0.00 | 0.00 | 75 | 1015.6 |
| 20260905041633 | 60 | 55 | 3.5 | 5.2 | 0.00 | 0.00 | 0.00 | 75 | 1015.7 |
| 20260905041129 | 60 | 62 | 3.5 | 5.2 | 0.00 | 0.00 | 0.00 | 76 | 1015.7 |
| 20260905040629 | 60 | 72 | 1.7 | 1.7 | 0.00 | 0.00 | 0.00 | 76 | 1015.9 |
| 20260905040127 | 60 | 58 | 3.5 | 4.3 | 0.00 | 0.00 | 0.00 | 77 | 1015.7 |
| 20260905035623 | 60 | 57 | 2.6 | 4.3 | 0.00 | 0.00 | 0.00 | 77 | 1015.9 |
| 20260905035119 | 60 | 80 | 3.5 | 4.3 | 0.00 | 0.00 | 0.00 | 77 | 1015.6 |
| 20260905034614 | 60 | 75 | 0.9 | 1.7 | 0.00 | 0.00 | 0.00 | 77 | 1015.6 |
| 20260905034109 | 61 | 32 | 2.6 | 4.3 | 0.00 | 0.00 | 0.00 | 77 | 1015.6 |
| 20260905033608 | 61 | 31 | 3.5 | 5.2 | 0.00 | 0.00 | 0.00 | 76 | 1015.7 |
| 20260905033104 | 61 | 58 | 2.6 | 4.3 | 0.00 | 0.00 | 0.00 | 76 | 1015.5 |
| 20260905032604 | 61 | 68 | 5.2 | 6.1 | 0.00 | 0.00 | 0.00 | 75 | 1015.3 |
| 20260905032104 | 61 | 55 | 0.9 | 2.6 | 0.00 | 0.00 | 0.00 | 75 | 1015.7 |
| 20260905031559 | 61 | 67 | 2.6 | 2.6 | 0.00 | 0.00 | 0.00 | 74 | 1015.6 |
| 20260905031059 | 61 | 71 | 2.6 | 4.3 | 0.00 | 0.00 | 0.00 | 74 | 1015.3 |
| 20260905030554 | 62 | 63 | 2.6 | 4.3 | 0.00 | 0.00 | 0.00 | 76 | 1015.2 |
| 20260905030049 | 62 | 67 | 1.7 | 4.3 | 0.00 | 0.00 | 0.00 | 75 | 1015.3 |
| 20260905025545 | 62 | 60 | 3.5 | 5.2 | 0.00 | 0.00 | 0.00 | 74 | 1015.1 |
| 20260905025041 | 63 | 43 | 4.3 | 6.1 | 0.00 | 0.00 | 0.00 | 72 | 1015.3 |
| 20260905024536 | 63 | 75 | 0.9 | 1.7 | 0.00 | 0.00 | 0.00 | 71 | 1015.1 |
| 20260905024031 | 63 | 73 | 1.7 | 2.6 | 0.00 | 0.00 | 0.00 | 70 | 1014.8 |
| 20260905023527 | 63 | 142 | 1.7 | 1.7 | 0.00 | 0.00 | 0.00 | 70 | 1015.1 |
| 20260905023021 | 64 | 52 | 1.7 | 1.7 | 0.00 | 0.00 | 0.00 | 70 | 1015.0 |
| 20260905022521 | 64 | 64 | 2.6 | 2.6 | 0.00 | 0.00 | 0.00 | 70 | 1015.0 |
| 20260905022016 | 64 | 116 | 2.6 | 2.6 | 0.00 | 0.00 | 0.00 | 70 | 1015.1 |
| 20260905021515 | 64 | 85 | 2.6 | 4.3 | 0.00 | 0.00 | 0.00 | 69 | 1015.0 |
| 20260905021011 | 64 | 74 | 0.9 | 1.7 | 0.00 | 0.00 | 0.00 | 69 | 1015.1 |
| 20260905020505 | 64 | 97 | 5.2 | 6.1 | 0.00 | 0.00 | 0.00 | 69 | 1015.1 |
| 20260905015959 | 64 | 138 | 4.3 | 6.1 | 0.00 | 0.00 | 0.00 | 70 | 1014.9 |
| 20260905015458 | 64 | 146 | 5.2 | 7.0 | 0.00 | 0.00 | 0.00 | 70 | 1014.9 |
| 20260905014957 | 64 | 50 | 4.3 | 5.2 | 0.00 | 0.00 | 0.00 | 70 | 1015.2 |
| 20260905014453 | 65 | 56 | 3.5 | 6.1 | 0.00 | 0.00 | 0.00 | 69 | 1014.9 |
| 20260905013948 | 66 | 86 | 0.9 | 2.6 | 0.00 | 0.00 | 0.00 | 68 | 1014.7 |
| 20260905013444 | 66 | 40 | 5.2 | 7.8 | 0.00 | 0.00 | 0.00 | 66 | 1014.8 |
| 20260905012939 | 66 | 84 | 3.5 | 5.2 | 0.00 | 0.00 | 0.00 | 65 | 1014.8 |
| 20260905012434 | 68 | 128 | 7.8 | 11.3 | 0.00 | 0.00 | 0.00 | 62 | 1014.8 |
| 20260905011931 | 68 | 110 | 1.7 | 2.6 | 0.00 | 0.00 | 0.00 | 61 | 1014.5 |
| 20260905011427 | 69 | 82 | 6.1 | 7.0 | 0.00 | 0.00 | 0.00 | 59 | 1014.4 |
| 20260905010922 | 69 | 2 | 0.0 | 0.0 | 0.00 | 0.00 | 0.00 | 57 | 1014.5 |
| 20260905010417 | 70 | 47 | 1.7 | 5.2 | 0.00 | 0.00 | 0.00 | 56 | 1014.5 |
| 20260905005913 | 70 | 332 | 2.6 | 4.3 | 0.00 | 0.00 | 0.00 | 56 | 1014.2 |
| 20260905005409 | 71 | 292 | 0.0 | 0.0 | 0.00 | 0.00 | 0.00 | 56 | 1014.2 |
| 20260905004904 | 71 | 304 | 0.9 | 2.6 | 0.00 | 0.00 | 0.00 | 55 | 1014.2 |
| 20260905004403 | 73 | 318 | 1.7 | 2.6 | 0.00 | 0.00 | 0.00 | 52 | 1014.2 |
| 20260905003859 | 71 | 318 | 0.0 | 0.0 | 0.00 | 0.00 | 0.00 | 56 | 1014.0 |
| 20260905003355 | 71 | 318 | 2.6 | 5.2 | 0.00 | 0.00 | 0.00 | 53 | 1013.9 |
| 20260905002850 | 72 | 271 | 1.7 | 2.6 | 0.00 | 0.00 | 0.00 | 52 | 1013.7 |
| 20260905002350 | 70 | 318 | 0.9 | 1.7 | 0.00 | 0.00 | 0.00 | 56 | 1013.7 |
| 20260905001844 | 71 | 347 | 0.0 | 0.0 | 0.00 | 0.00 | 0.00 | 55 | 1013.9 |
| 20260905001339 | 73 | 336 | 1.7 | 2.6 | 0.00 | 0.00 | 0.00 | 52 | 1013.9 |
| 20260905000834 | 70 | 347 | 0.0 | 0.0 | 0.00 | 0.00 | 0.00 | 56 | 1013.6 |
| 20260905000329 | 71 | 302 | 0.0 | 0.9 | 0.00 | 0.00 | 0.00 | 54 | 1013.9 |
| 20260904235825 | 70 | 339 | 0.0 | 0.0 | 0.00 | 0.00 | 0.00 | 57 | 1013.9 |
| 20260904235320 | 72 | 349 | 3.5 | 5.2 | 0.00 | 0.00 | 0.00 | 54 | 1013.6 |
| 20260904234814 | 71 | 284 | 0.9 | 2.6 | 0.00 | 0.00 | 0.00 | 52 | 1013.4 |
| 20260904234309 | 72 | 317 | 0.9 | 1.7 | 0.00 | 0.00 | 0.00 | 51 | 1013.7 |
| 20260904233805 | 71 | 282 | 0.0 | 0.0 | 0.00 | 0.00 | 0.00 | 52 | 1013.7 |
| 20260904233301 | 71 | 312 | 0.0 | 0.9 | 0.00 | 0.00 | 0.00 | 54 | 1013.6 |
| 20260904232757 | 70 | 333 | 4.3 | 6.1 | 0.00 | 0.00 | 0.00 | 56 | 1013.5 |
| 20260904232253 | 71 | 326 | 4.3 | 5.2 | 0.00 | 0.00 | 0.00 | 55 | 1013.6 |
| 20260904231749 | 70 | 311 | 0.0 | 0.0 | 0.00 | 0.00 | 0.00 | 55 | 1013.4 |
| 20260904231244 | 71 | 315 | 2.6 | 6.1 | 0.00 | 0.00 | 0.00 | 54 | 1013.3 |
| 20260904230739 | 72 | 299 | 0.0 | 0.0 | 0.00 | 0.00 | 0.00 | 53 | 1013.6 |
| 20260904230233 | 71 | 350 | 0.0 | 0.0 | 0.00 | 0.00 | 0.00 | 54 | 1013.5 |
| 20260904225732 | 72 | 288 | 0.0 | 0.0 | 0.00 | 0.00 | 0.00 | 53 | 1013.5 |
| 20260904225226 | 71 | 278 | 0.0 | 0.0 | 0.00 | 0.00 | 0.00 | 54 | 1013.4 |
| 20260904224725 | 69 | 342 | 4.3 | 5.2 | 0.00 | 0.00 | 0.00 | 55 | 1013.7 |
| 20260904224221 | 71 | 279 | 0.9 | 0.9 | 0.00 | 0.00 | 0.00 | 55 | 1013.3 |
| 20260904223720 | 70 | 298 | 0.9 | 1.7 | 0.00 | 0.00 | 0.00 | 56 | 1013.5 |
| 20260904223215 | 71 | 304 | 1.7 | 2.6 | 0.00 | 0.00 | 0.00 | 54 | 1013.3 |
| 20260904222711 | 70 | 307 | 0.9 | 2.6 | 0.00 | 0.00 | 0.00 | 55 | 1013.4 |
| 20260904222207 | 70 | 342 | 4.3 | 5.2 | 0.00 | 0.00 | 0.00 | 56 | 1013.2 |
| 20260904221706 | 70 | 316 | 3.5 | 5.2 | 0.00 | 0.00 | 0.00 | 55 | 1013.5 |
| 20260904221201 | 69 | 327 | 3.5 | 4.3 | 0.00 | 0.00 | 0.00 | 58 | 1013.5 |
| 20260904220656 | 68 | 251 | 0.9 | 2.6 | 0.00 | 0.00 | 0.00 | 60 | 1013.2 |
| 20260904220151 | 68 | 1 | 1.7 | 2.6 | 0.00 | 0.00 | 0.00 | 59 | 1013.4 |
| 20260904215650 | 68 | 238 | 4.3 | 6.1 | 0.00 | 0.00 | 0.00 | 59 | 1013.4 |
| 20260904215147 | 69 | 316 | 5.2 | 7.0 | 0.00 | 0.00 | 0.00 | 60 | 1013.5 |
| 20260904214641 | 69 | 274 | 0.9 | 0.9 | 0.00 | 0.00 | 0.00 | 61 | 1013.4 |
| 20260904214137 | 71 | 326 | 3.5 | 5.2 | 0.00 | 0.00 | 0.00 | 57 | 1013.2 |
| 20260904213635 | 68 | 317 | 5.2 | 6.1 | 0.00 | 0.00 | 0.00 | 60 | 1013.4 |
| 20260904213131 | 69 | 318 | 4.3 | 6.1 | 0.00 | 0.00 | 0.00 | 59 | 1013.3 |
| 20260904212626 | 70 | 329 | 6.1 | 7.0 | 0.00 | 0.00 | 0.00 | 59 | 1013.5 |
| 20260904212121 | 70 | 317 | 0.9 | 0.9 | 0.00 | 0.00 | 0.00 | 57 | 1013.4 |
| 20260904211620 | 69 | 338 | 0.0 | 1.7 | 0.00 | 0.00 | 0.00 | 57 | 1013.3 |
| 20260904211116 | 70 | 267 | 0.0 | 0.0 | 0.00 | 0.00 | 0.00 | 59 | 1013.3 |
| 20260904210616 | 69 | 317 | 4.3 | 6.1 | 0.00 | 0.00 | 0.00 | 57 | 1013.4 |
| 20260904210111 | 69 | 304 | 0.9 | 0.9 | 0.00 | 0.00 | 0.00 | 57 | 1013.3 |
| 20260904205607 | 68 | 2 | 1.7 | 2.6 | 0.00 | 0.00 | 0.00 | 59 | 1013.3 |
| 20260904205103 | 69 | 333 | 7.8 | 9.6 | 0.00 | 0.00 | 0.00 | 57 | 1013.2 |
| 20260904204559 | 68 | 192 | 0.0 | 0.0 | 0.00 | 0.00 | 0.00 | 61 | 1013.4 |
| 20260904204055 | 68 | 348 | 2.6 | 5.2 | 0.00 | 0.00 | 0.00 | 62 | 1013.2 |
| 20260904203550 | 68 | 13 | 4.3 | 5.2 | 0.00 | 0.00 | 0.00 | 60 | 1013.5 |
| 20260904203047 | 67 | 283 | 0.9 | 1.7 | 0.00 | 0.00 | 0.00 | 62 | 1013.2 |
| 20260904202542 | 67 | 336 | 2.6 | 4.3 | 0.00 | 0.00 | 0.00 | 63 | 1013.3 |
| 20260904202039 | 68 | 250 | 3.5 | 5.2 | 0.00 | 0.00 | 0.00 | 61 | 1013.2 |
| 20260904201533 | 68 | 234 | 0.0 | 0.0 | 0.00 | 0.00 | 0.00 | 63 | 1013.2 |
| 20260904201029 | 69 | 306 | 0.9 | 1.7 | 0.00 | 0.00 | 0.00 | 63 | 1013.4 |
| 20260904200527 | 66 | 248 | 6.1 | 7.0 | 0.00 | 0.00 | 0.00 | 67 | 1013.2 |
| 20260904200023 | 67 | 249 | 1.7 | 2.6 | 0.00 | 0.00 | 0.00 | 67 | 1013.2 |
| 20260904195521 | 66 | 252 | 1.7 | 4.3 | 0.00 | 0.00 | 0.00 | 67 | 1013.1 |
| 20260904195020 | 66 | 300 | 5.2 | 7.8 | 0.00 | 0.00 | 0.00 | 68 | 1013.4 |
| 20260904194515 | 66 | 309 | 0.0 | 0.0 | 0.00 | 0.00 | 0.00 | 68 | 1013.2 |
| 20260904194010 | 66 | 238 | 6.1 | 7.0 | 0.00 | 0.00 | 0.00 | 68 | 1013.3 |
| 20260904193505 | 67 | 255 | 0.0 | 0.9 | 0.00 | 0.00 | 0.00 | 68 | 1013.5 |
| 20260904193001 | 67 | 1 | 1.7 | 1.7 | 0.00 | 0.00 | 0.00 | 68 | 1013.6 |
| 20260904192500 | 66 | 353 | 1.7 | 2.6 | 0.00 | 0.00 | 0.00 | 68 | 1013.5 |
| 20260904191957 | 66 | 313 | 0.0 | 0.9 | 0.00 | 0.00 | 0.00 | 69 | 1013.5 |
| 20260904191453 | 66 | 207 | 1.7 | 1.7 | 0.00 | 0.00 | 0.00 | 70 | 1013.4 |
| 20260904190949 | 65 | 320 | 0.0 | 0.9 | 0.00 | 0.00 | 0.00 | 72 | 1013.5 |
| 20260904190444 | 66 | 268 | 0.0 | 0.0 | 0.00 | 0.00 | 0.00 | 72 | 1013.5 |
| 20260904185940 | 66 | 262 | 0.0 | 0.9 | 0.00 | 0.00 | 0.00 | 71 | 1013.6 |
| 20260904185436 | 65 | 293 | 1.7 | 1.7 | 0.00 | 0.00 | 0.00 | 73 | 1013.7 |